Aérodrome :
LOGIN :

S'inscrire | Disclaimer

   EN    FR    IT 

 










Légende :    VFR   VFR Marginal   IFR   IFR Intensif   IFR Très Intensif
Visi : 
Plafond : 
>= 8 km
>= 3000ft
5 à 8 km
1000 à 3000 ft
1500m à 5 km
500 à 1000 ft
800 à 1500m
200 à 500 ft
< 800m
< 200 ft
Symboles :   Orages  Brouillard  Fortes neiges  Fortes précipitations  Vent > 20 kt
SIGMETs :   Divers  Orages  Givrage  Turbulence  Onde Orograph.  Cendres Volcan.







- Altitude de l'aérodrome : 1276 ft
- Code IATA : STR


EDDS - Stuttgart

DERNIER METAR :
  • 170850Z VRB02KT CAVOK 13/08 Q1020 NOSIG

METARs EXPIRÉS :
  • 170820Z VRB02KT CAVOK 12/07 Q1020 NOSIG
  • 170750Z VRB01KT CAVOK 10/07 Q1020 NOSIG
  • 170720Z VRB01KT CAVOK 08/06 Q1020 NOSIG
  • 170650Z 06002KT CAVOK 07/06 Q1020 NOSIG
  • 170620Z 07003KT CAVOK 06/05 Q1019 NOSIG

TAF TAF EDDS
Valide du 17 à 06h jusqu'au 18 à 06h UTC


170500Z 1706/1806 VRB03KT CAVOK
TEMPO 1712/1718 04005KT
Pas de NOTAMs connus pour ce terrain.



MET'MAP, la Météo Aéronautique d'un coup d'oeil ! - Copyright ORBIFLY Décembre 2007 - Disclaimer

ORBIFLY MET'MAP TEAM :

Programmation & Développement : Alexandra Zaïnal
Conception & Développement : Baudouin d'Aumeries
Co-Programmation & Développement : Marc-Olivier Méhu
Soutien technique & logistique : Manuel Goepfert

Contact : metmap@orbifly.com




SOURCES & CREDITS :

   NOAA